This is the latest recevied weather packets stored in our database for station/object JO1YDG-13. If no packets are shown the sender has not sent any weather packets the latest 10 day(s).
| Time | Temp. | Humidity | Pressure | Rain* | Wind** | Luminosity | Snow |
|---|---|---|---|---|---|---|---|
| 1777789468 | 25° C | 35% | 978.3 hPa | 0 mm | - | - | - |
| 1777789168 | 24.44° C | 35% | 978.3 hPa | 0 mm | - | - | - |
| 1777788868 | 24.44° C | 36% | 978.2 hPa | 0 mm | - | - | - |
| 1777788568 | 24.44° C | 36% | 978.2 hPa | 0 mm | - | - | - |
| 1777788267 | 23.89° C | 36% | 978.2 hPa | 0 mm | - | - | - |
| 1777787967 | 24.44° C | 37% | 978.6 hPa | 0 mm | - | - | - |
| 1777787669 | 23.89° C | 38% | 978.6 hPa | 0 mm | - | - | - |
| 1777787369 | 24.44° C | 37% | 978.3 hPa | 0 mm | - | - | - |
| 1777787069 | 24.44° C | 37% | 978.3 hPa | 0 mm | - | - | - |
| 1777786768 | 24.44° C | 36% | 978.3 hPa | 0 mm | - | - | - |
| 1777786468 | 24.44° C | 36% | 978.4 hPa | 0 mm | - | - | - |
| 1777786169 | 25° C | 36% | 978.4 hPa | 0 mm | - | - | - |
| 1777785869 | 25° C | 36% | 978.3 hPa | 0 mm | - | - | - |
| 1777785569 | 25° C | 36% | 978.3 hPa | 0 mm | - | - | - |
| 1777785268 | 25° C | 35% | 978.5 hPa | 0 mm | - | - | - |
| 1777784968 | 25° C | 34% | 978.5 hPa | 0 mm | - | - | - |
| 1777784668 | 25° C | 34% | 978.5 hPa | 0 mm | - | - | - |
| 1777784368 | 25.56° C | 33% | 978.8 hPa | 0 mm | - | - | - |
| 1777784068 | 26.67° C | 33% | 978.8 hPa | 0 mm | - | - | - |
| 1777783767 | 25.56° C | 32% | 978.9 hPa | 0 mm | - | - | - |
| 1777783468 | 26.11° C | 31% | 978.9 hPa | 0 mm | - | - | - |
| 1777783168 | 26.11° C | 31% | 978.9 hPa | 0 mm | - | - | - |
| 1777782869 | 26.11° C | 31% | 978.9 hPa | 0 mm | - | - | - |
| 1777782569 | 26.67° C | 30% | 978.9 hPa | 0 mm | - | - | - |
| 1777782268 | 26.67° C | 31% | 979.2 hPa | 0 mm | - | - | - |
* Rain latest hour (hover to see other rain measurements)
** Current wind speed in m/s (hover to see current wind gust speed)